Tracking 29747 objects as of 10-Oct-2024
HD Live streaming from Space Station
objects crossing your sky now

DELTA 1 DEB

Track DELTA 1 DEB now!
10-day predictions


NORAD ID: 26833
Int'l Code: 1975-052KM
Perigee: 1,090.7 km
Apogee: 1,659.4 km
Inclination: 99.7 °
Period: 113.1 minutes
Semi major axis: 7746 km
RCS: 0.01 m2 (small)
Launch date: June 12, 1975
Source: United States (US)
Launch site: AIR FORCE WESTERN TEST RANGE (AFWTR)

Note: This is SATELLITE DEBRIS
Your satellite tracking list
Your tracking list is empty




NASA's NSSDC Master Catalog

Two Line Element Set (TLE):
1 26833U 75052KM  24283.28442456  .00000231  00000-0  97652-3 0  9993
2 26833  99.6731 289.5515 0367073 222.4708 147.4995 12.73443891192716
Source of the keplerian elements: AFSPC